Aérodrome :
LOGIN :

S'inscrire | Disclaimer

   EN    FR    IT 

 










Légende :    VFR   VFR Marginal   IFR   IFR Intensif   IFR Très Intensif
Visi : 
Plafond : 
>= 8 km
>= 3000ft
5 à 8 km
1000 à 3000 ft
1500m à 5 km
500 à 1000 ft
800 à 1500m
200 à 500 ft
< 800m
< 200 ft
Symboles :   Orages  Brouillard  Fortes neiges  Fortes précipitations  Vent > 20 kt
SIGMETs :   Divers  Orages  Givrage  Turbulence  Onde Orograph.  Cendres Volcan.







- Altitude de l'aérodrome : 870 ft
- Code IATA : ETZ
- Voir les cartes d'approche


LFJL - Metz Nancy Lorraine

DERNIER METAR :
  • 200700Z AUTO 20004KT 160V240 CAVOK 18/14 Q1021 NOSIG

METARs EXPIRÉS :
  • 200630Z AUTO 16009KT CAVOK 17/14 Q1021 NOSIG
  • 200600Z AUTO 16010KT CAVOK 15/13 Q1020 NOSIG
  • 200530Z AUTO 16010KT CAVOK 15/13 Q1020 NOSIG
  • 200500Z AUTO 17010KT CAVOK 15/13 Q1020 NOSIG
  • 200430Z AUTO 17009KT CAVOK 15/13 Q1020 NOSIG

TAF TAF LFJL
Valide du 20 à 06h jusqu'au 21 à 06h UTC


200500Z 2006/2106 17010KT CAVOK
BECMG 2009/2012 23010KT
BECMG 2017/2020 16010KT
Pas de NOTAMs connus pour ce terrain.



MET'MAP, la Météo Aéronautique d'un coup d'oeil ! - Copyright ORBIFLY Décembre 2007 - Disclaimer

ORBIFLY MET'MAP TEAM :

Programmation & Développement : Alexandra Zaïnal
Conception & Développement : Baudouin d'Aumeries
Co-Programmation & Développement : Marc-Olivier Méhu
Soutien technique & logistique : Manuel Goepfert

Contact : metmap@orbifly.com




SOURCES & CREDITS :

   NOAA